1998-067QC

Last updated on Sat Jun 08 2019 00:02:09 GMT+0000 (Coordinated Universal Time)

1 44305U 98067QC 19157.34141877 .00009942 00000-0 16865-3 0 9997 2 44305 51.6398 55.0800 0006054 49.1840 310.9674 15.52153184 1173
UTC large
Height (km)
Speed (km/s)
/
Latitude / Longitude
Inclination (degrees)
Orbital Period (minutes)
Azimuth
Elevation
Range (km)
Doppler Factor

Next 0 passes for location: London (51.5072 / 0.1276)

Sorry there are no passes over London.